TimeCST,TemperatureF,Dew PointF,Humidity,Sea Level PressureIn,VisibilityMPH,Wind Direction,Wind SpeedMPH,Gust SpeedMPH,PrecipitationIn,Events,Conditions,WindDirDegrees,DateUTC
12:15 AM,12.2,5.0,73,30.26,10.0,Calm,Calm,-,N/A,,Scattered Clouds,0,2013-01-17 06:15:00
12:36 AM,14.0,5.0,67,30.25,10.0,Calm,Calm,-,N/A,,Mostly Cloudy,0,2013-01-17 06:36:00
12:56 AM,12.2,5.0,73,30.26,10.0,WNW,3.5,-,N/A,,Scattered Clouds,290,2013-01-17 06:56:00
1:15 AM,12.2,5.0,73,30.27,10.0,Calm,Calm,-,N/A,,Clear,0,2013-01-17 07:15:00
1:36 AM,12.2,5.0,73,30.31,10.0,NW,5.8,-,N/A,,Mostly Cloudy,310,2013-01-17 07:36:00
1:56 AM,14.0,5.0,67,30.31,10.0,NW,3.5,-,N/A,,Overcast,310,2013-01-17 07:56:00
2:15 AM,14.0,5.0,67,30.31,10.0,NNW,3.5,-,N/A,,Overcast,340,2013-01-17 08:15:00
2:36 AM,14.0,5.0,67,30.33,10.0,North,6.9,-,N/A,,Overcast,350,2013-01-17 08:36:00
2:56 AM,14.0,5.0,67,30.34,10.0,North,6.9,-,N/A,,Overcast,360,2013-01-17 08:56:00
3:36 AM,14.0,5.0,67,30.34,10.0,NNW,5.8,-,N/A,,Overcast,340,2013-01-17 09:36:00
3:56 AM,14.0,5.0,67,30.33,10.0,ENE,4.6,-,N/A,,Overcast,60,2013-01-17 09:56:00
4:15 AM,12.2,5.0,73,30.33,10.0,NE,8.1,-,N/A,,Overcast,50,2013-01-17 10:15:00
4:36 AM,12.2,3.2,67,30.33,10.0,ENE,3.5,-,N/A,,Overcast,60,2013-01-17 10:36:00
4:56 AM,12.2,3.2,67,30.34,10.0,Calm,Calm,-,N/A,,Overcast,0,2013-01-17 10:56:00
5:15 AM,12.2,3.2,67,30.34,10.0,Calm,Calm,-,N/A,,Overcast,0,2013-01-17 11:15:00
5:36 AM,12.2,1.4,62,30.35,10.0,Calm,Calm,-,N/A,,Overcast,0,2013-01-17 11:36:00
5:56 AM,12.2,1.4,62,30.34,10.0,Calm,Calm,-,N/A,,Overcast,0,2013-01-17 11:56:00
6:15 AM,12.2,1.4,62,30.35,10.0,Calm,Calm,-,N/A,,Overcast,0,2013-01-17 12:15:00
6:36 AM,14.0,3.2,62,30.35,10.0,ENE,3.5,-,N/A,,Overcast,60,2013-01-17 12:36:00
6:56 AM,14.0,3.2,62,30.36,10.0,NE,3.5,-,N/A,,Overcast,40,2013-01-17 12:56:00
7:15 AM,14.0,3.2,62,30.36,10.0,Calm,Calm,-,N/A,,Overcast,0,2013-01-17 13:15:00
7:36 AM,14.0,3.2,62,30.37,10.0,Calm,Calm,-,N/A,,Overcast,0,2013-01-17 13:36:00
7:56 AM,14.0,3.2,62,30.36,10.0,Calm,Calm,-,N/A,,Overcast,0,2013-01-17 13:56:00
8:15 AM,14.0,3.2,62,30.35,10.0,South,5.8,-,N/A,,Overcast,180,2013-01-17 14:15:00
8:36 AM,14.0,5.0,67,30.36,10.0,South,8.1,-,N/A,,Overcast,190,2013-01-17 14:36:00
8:56 AM,15.8,8.6,73,30.37,10.0,SSW,6.9,-,N/A,,Overcast,200,2013-01-17 14:56:00
9:16 AM,17.6,8.6,68,30.37,10.0,SSW,8.1,-,N/A,,Scattered Clouds,210,2013-01-17 15:16:00
9:36 AM,19.4,10.4,68,30.38,10.0,SSW,8.1,-,N/A,,Clear,210,2013-01-17 15:36:00
9:56 AM,19.4,12.2,74,30.39,10.0,SSW,6.9,-,N/A,,Clear,210,2013-01-17 15:56:00
10:16 AM,21.2,14.0,74,30.39,10.0,SW,8.1,-,N/A,,Clear,220,2013-01-17 16:16:00
10:36 AM,23.0,15.8,74,30.39,10.0,SW,8.1,-,N/A,,Clear,220,2013-01-17 16:36:00
10:56 AM,24.8,17.6,74,30.39,10.0,SW,6.9,-,N/A,,Scattered Clouds,230,2013-01-17 16:56:00
11:15 AM,26.6,19.4,74,30.38,10.0,SW,5.8,-,N/A,,Mostly Cloudy,230,2013-01-17 17:15:00
11:36 AM,28.4,19.4,69,30.38,10.0,WSW,4.6,-,N/A,,Overcast,250,2013-01-17 17:36:00
11:56 AM,28.4,21.2,74,30.38,10.0,West,5.8,-,N/A,,Overcast,270,2013-01-17 17:56:00
12:15 PM,30.2,21.2,69,30.36,10.0,SW,5.8,-,N/A,,Overcast,230,2013-01-17 18:15:00
12:36 PM,30.2,21.2,69,30.37,10.0,WNW,3.5,-,N/A,,Overcast,300,2013-01-17 18:36:00
12:56 PM,30.2,21.2,69,30.37,10.0,WNW,5.8,-,N/A,,Overcast,290,2013-01-17 18:56:00
1:15 PM,30.2,21.2,69,30.36,10.0,WNW,3.5,-,N/A,,Overcast,290,2013-01-17 19:15:00
1:36 PM,30.2,23.0,75,30.35,10.0,WNW,3.5,-,N/A,,Overcast,300,2013-01-17 19:36:00
1:55 PM,32.0,23.0,69,30.36,10.0,NW,3.5,-,N/A,,Mostly Cloudy,310,2013-01-17 19:55:00
2:16 PM,32.0,23.0,69,30.34,10.0,Calm,Calm,-,N/A,,Scattered Clouds,0,2013-01-17 20:16:00
2:35 PM,32.0,23.0,69,30.34,10.0,Calm,Calm,-,N/A,,Clear,0,2013-01-17 20:35:00
2:56 PM,32.0,23.0,69,30.34,10.0,Calm,Calm,-,N/A,,Scattered Clouds,0,2013-01-17 20:56:00
3:15 PM,32.0,23.0,69,30.34,10.0,Calm,Calm,-,N/A,,Clear,0,2013-01-17 21:15:00
3:36 PM,32.0,23.0,69,30.34,10.0,Calm,Calm,-,N/A,,Scattered Clouds,0,2013-01-17 21:36:00
3:55 PM,32.0,23.0,69,30.35,10.0,Calm,Calm,-,N/A,,Clear,0,2013-01-17 21:55:00
4:16 PM,32.0,23.0,69,30.35,10.0,Calm,Calm,-,N/A,,Clear,0,2013-01-17 22:16:00
4:36 PM,30.2,23.0,75,30.34,10.0,West,3.5,-,N/A,,Clear,280,2013-01-17 22:36:00
4:55 PM,30.2,23.0,75,30.35,10.0,Calm,Calm,-,N/A,,Scattered Clouds,0,2013-01-17 22:55:00
5:16 PM,30.2,23.0,75,30.34,10.0,Calm,Calm,-,N/A,,Scattered Clouds,0,2013-01-17 23:16:00
5:36 PM,28.4,23.0,80,30.34,10.0,Calm,Calm,-,N/A,,Scattered Clouds,0,2013-01-17 23:36:00
5:56 PM,28.4,24.8,86,30.34,10.0,Calm,Calm,-,N/A,,Mostly Cloudy,0,2013-01-17 23:56:00
6:16 PM,28.4,24.8,86,30.34,10.0,SE,3.5,-,N/A,,Scattered Clouds,130,2013-01-18 00:16:00
6:36 PM,28.4,23.0,80,30.33,10.0,SE,4.6,-,N/A,,Mostly Cloudy,140,2013-01-18 00:36:00
6:55 PM,28.4,23.0,80,30.33,10.0,SE,4.6,-,N/A,,Mostly Cloudy,140,2013-01-18 00:55:00
7:16 PM,28.4,23.0,80,30.32,10.0,ESE,3.5,-,N/A,,Mostly Cloudy,120,2013-01-18 01:16:00
7:56 PM,28.4,23.0,80,30.31,10.0,SSE,5.8,-,N/A,,Overcast,160,2013-01-18 01:56:00
8:16 PM,28.4,23.0,80,30.29,10.0,SSE,5.8,-,N/A,,Overcast,160,2013-01-18 02:16:00
8:56 PM,28.4,23.0,80,30.27,10.0,SSE,6.9,-,N/A,,Mostly Cloudy,160,2013-01-18 02:56:00
9:16 PM,28.4,23.0,80,30.26,10.0,SSE,3.5,-,N/A,,Overcast,160,2013-01-18 03:16:00
9:56 PM,28.4,23.0,80,30.24,10.0,SSE,5.8,-,N/A,,Overcast,150,2013-01-18 03:56:00
10:16 PM,28.4,23.0,80,30.22,10.0,SSE,6.9,-,N/A,,Overcast,160,2013-01-18 04:16:00
10:35 PM,28.4,23.0,80,30.20,10.0,SSE,6.9,-,N/A,,Overcast,160,2013-01-18 04:35:00
10:56 PM,28.4,26.6,93,30.19,7.0,SSE,9.2,-,N/A,,Mostly Cloudy,150,2013-01-18 04:56:00
11:16 PM,28.4,26.6,93,30.17,7.0,SSE,9.2,-,N/A,,Scattered Clouds,150,2013-01-18 05:16:00
11:35 PM,28.4,26.6,93,30.17,3.0,SSE,6.9,-,N/A,,Mostly Cloudy,160,2013-01-18 05:35:00
11:56 PM,28.4,26.6,93,30.15,2.0,South,9.2,-,N/A,,Overcast,170,2013-01-18 05:56:00